{"data":{"norad_id":65767,"intl_designator":"2025-217F","name":"KUIPER-00145","alt_names":[],"object_type":"PAYLOAD","status":"ACTIVE","operator":null,"country":"US","launch_date":"2025-09-25","launch_site_code":"AFETR","launch_vehicle":null,"mission":null,"orbit_class":"UNKNOWN","rcs_meters":null,"size_class":null,"mass_kg":null,"dimensions":null,"purposes":[],"wikipedia_slug":null,"has_3d_model":false,"image_url":null,"decayed_at":null,"tle_current":{"epoch":"2026-05-25T04:47:58.113024Z","epoch_age_seconds":54866,"freshness":"FRESH","line1":"1 65767U 25217F   26145.19997816  .00000456  00000+0  88857-4 0  9990","line2":"2 65767  51.9001  59.7747 0000767  95.1031 265.0019 14.79935293 36270","mean_motion":14.79935293,"eccentricity":7.67e-5,"inclination_deg":51.9001,"raan_deg":59.7747,"arg_perigee_deg":95.1031,"mean_anomaly_deg":265.0019,"bstar":8.8857e-5,"rev_number":3627,"period_min":97.301551413167,"perigee_km":628.99090281608,"apogee_km":630.06587868702,"semimajor_km":7007.6653907515,"source":"CELESTRAK","updated_at":"2026-05-25T13:38:05.659604Z"}}}